Wind_Speed
15 16 15 14 15 15 15 14 12 12 12 12 11 11 10 10 9 8 8 8 7 7 7 7 7 7 6 5 5 6 6 5 4 4 5 6 6 7 7 7 7 6
16 16 16 15 15 15 14 13 13 13 12 12 12 12 11 11 10 9 8 8 8 7 7 7 7 7 7 7 6 6 6 5 5 5 5 5 6 6 7 6 6 5
16 16 16 15 15 14 13 14 13 13 13 13 13 13 12 11 10 10 9 8 8 8 7 8 8 8 8 7 8 7 7 7 6 6 6 6 6 6 6 6 6 5
16 16 15 15 14 14 13 14 14 13 13 13 13 13 12 11 10 10 10 9 8 8 8 8 8 8 8 8 8 8 8 8 7 7 7 7 7 8 7 7 6 5
16 16 15 15 15 15 14 14 14 14 13 13 12 12 12 12 11 10 10 10 10 9 9 9 9 8 8 8 9 9 8 8 8 8 8 8 8 8 8 8 7 5
16 16 16 16 16 16 16 15 15 15 14 14 13 13 12 12 11 11 10 10 10 9 9 9 9 9 9 9 9 9 9 9 9 9 8 8 8 9 9 9 8 7
16 17 17 17 17 17 17 16 16 16 15 15 14 13 13 12 12 11 10 10 9 9 9 9 9 9 9 9 9 10 9 10 10 9 9 9 9 10 10 10 10 9
18 18 18 18 18 18 17 17 16 16 16 15 15 14 13 13 12 12 12 11 11 10 10 10 10 10 10 10 10 11 11 11 11 10 10 11 11 11 11 12 12 10
20 20 20 20 19 19 18 17 17 16 16 16 15 14 14 13 13 13 14 14 13 13 12 12 12 11 11 11 11 11 12 12 12 11 11 12 12 12 13 13 13 12
22 22 21 21 21 20 19 18 18 18 17 16 15 15 15 15 15 15 15 14 13 12 12 13 12 12 11 11 11 12 12 12 12 13 14 15 14 14 14 14 14 14
23 23 23 23 22 21 20 19 19 19 18 17 16 16 16 16 16 16 14 13 12 11 11 11 11 11 11 12 13 14 14 14 14 16 17 17 17 17 16 16 15 14
26 25 25 24 23 22 21 21 21 20 19 19 18 18 17 17 17 16 15 14 12 12 11 10 10 11 11 13 15 15 15 15 16 18 18 17 19 19 17 16 15 15
27 26 25 24 23 23 22 22 23 22 21 20 20 19 18 18 18 17 16 14 13 12 11 11 12 13 14 15 15 14 14 15 16 17 17 17 20 19 16 15 15 15
25 24 24 24 23 23 23 22 22 22 21 20 20 20 19 19 18 16 16 14 13 12 12 12 13 14 15 15 14 13 13 13 13 14 14 17 20 19 16 16 15 15
24 23 23 24 24 24 23 21 20 19 19 18 18 18 18 19 18 17 16 15 14 14 14 14 14 14 15 15 13 12 12 11 12 12 13 16 19 18 16 16 16 15
26 24 22 22 23 23 22 20 19 19 20 19 18 18 18 19 20 19 17 16 16 16 16 16 16 16 16 15 14 13 12 12 12 13 14 16 17 17 16 15 15 15
25 22 21 20 21 22 22 20 20 21 21 20 20 20 19 20 20 20 18 17 17 18 18 18 18 18 17 16 15 15 14 14 13 13 14 15 15 15 15 15 14 14
23 21 21 22 21 21 22 20 20 21 21 20 20 20 20 20 20 20 19 18 18 19 19 19 19 19 20 20 19 18 17 16 16 15 14 14 14 14 14 14 14 14
24 23 23 23 23 23 23 22 21 21 20 20 20 21 22 22 23 23 22 22 22 22 21 20 20 20 21 22 23 22 20 19 19 18 16 15 14 14 14 14 14 14
23 23 23 24 24 24 23 23 22 21 21 21 22 22 23 25 25 25 25 25 26 26 25 24 24 23 23 22 23 24 24 23 23 22 20 18 17 16 16 15 14 15
19 20 22 24 24 24 24 23 23 23 24 25 25 25 25 26 27 28 28 28 29 29 28 28 27 27 26 25 24 24 24 25 25 24 23 21 20 19 18 17 16 16
17 18 20 22 24 25 24 24 24 25 26 27 27 27 27 27 28 28 29 30 30 30 31 31 30 29 29 29 27 26 25 25 26 25 25 24 23 23 22 21 20 18
17 16 18 20 22 23 23 24 25 26 27 27 28 28 28 28 29 31 32 32 32 31 31 31 31 31 31 30 30 29 27 27 26 27 27 27 26 25 25 23 22 20
17 16 17 18 19 20 21 23 23 24 26 27 27 28 29 30 31 33 33 32 32 32 32 32 31 31 31 31 32 32 30 28 27 27 28 28 27 26 24 23 23 21
17 16 16 17 17 18 20 21 22 22 23 24 24 26 27 28 30 31 30 31 32 31 31 32 31 31 31 32 33 34 33 31 29 27 27 27 27 26 24 23 23 21
17 17 17 17 18 18 19 20 21 22 23 23 22 23 24 25 26 26 25 27 28 27 28 28 28 28 29 30 31 33 34 33 30 27 26 27 27 26 24 23 22 22
Wind_Direction
207 208 207 200 198 199 197 196 197 194 193 194 195 196 198 198 197 197 197 200 208 212 213 213 211 214 216 216 219 225 229 235 240 235 226 227 236 245 252 259 265 270
210 209 208 203 201 204 203 200 200 198 197 197 196 198 201 199 196 202 203 200 203 209 214 216 214 214 217 218 221 224 227 233 238 238 235 236 240 245 249 250 251 253
210 208 207 206 204 205 206 205 204 202 200 198 197 200 204 204 201 203 208 206 205 209 215 217 218 218 221 225 227 228 230 233 236 237 238 239 241 245 247 248 246 244
207 207 206 206 207 208 208 208 206 205 203 200 199 201 205 208 207 205 207 211 213 215 216 218 219 222 226 230 231 231 231 234 237 239 240 242 244 245 247 252 253 251
204 204 205 206 207 209 209 207 205 204 204 204 204 207 211 213 213 211 208 211 218 222 220 219 221 225 229 233 235 234 233 235 238 240 243 246 248 250 253 256 258 257
202 201 202 204 205 207 207 206 205 204 204 206 209 212 216 218 219 220 216 211 216 224 229 230 229 230 232 235 237 238 239 241 244 246 247 247 250 255 258 258 257 254
202 200 200 201 203 205 205 205 206 206 206 208 210 211 214 217 218 221 224 221 219 222 225 230 236 239 241 241 241 244 245 246 248 250 251 250 250 253 256 257 254 252
204 203 203 203 204 205 205 206 207 207 207 208 209 210 212 214 213 214 220 222 223 224 224 225 230 237 242 243 243 246 248 247 246 246 247 249 252 255 257 257 257 257
207 207 207 208 209 208 208 209 208 207 208 209 208 212 215 217 219 219 222 224 222 222 226 230 232 235 240 245 247 248 250 254 255 253 252 250 248 251 256 260 262 264
212 210 210 212 213 212 210 211 210 209 211 212 213 217 220 221 225 227 232 238 235 228 230 237 241 243 245 250 252 251 253 260 263 264 264 260 253 247 248 254 259 260
215 214 213 214 214 214 213 212 212 213 215 217 219 222 225 227 229 232 235 242 245 243 244 249 251 253 253 252 251 250 253 256 256 257 260 259 256 251 245 248 254 259
213 213 213 214 214 214 214 214 214 216 219 221 223 226 230 231 231 232 230 231 237 242 248 253 253 253 254 254 254 257 262 261 255 254 255 253 252 252 250 252 257 262
210 212 212 212 213 214 215 215 215 216 217 220 223 224 229 232 233 234 232 229 228 232 238 243 247 248 249 250 252 260 270 268 257 251 251 250 250 252 253 254 256 259
207 211 213 212 212 213 215 217 219 219 218 220 222 222 226 231 234 238 243 242 236 233 238 243 249 253 255 255 256 263 272 270 259 251 251 252 253 255 257 259 261 262
205 210 214 215 213 214 216 218 222 225 223 224 226 224 228 233 236 236 240 245 246 246 249 252 255 257 257 257 255 257 264 266 262 259 258 259 261 263 264 265 266 267
207 207 213 218 218 220 219 216 219 224 226 228 231 232 234 239 244 245 244 245 250 254 256 257 259 258 255 252 250 250 255 258 261 262 260 260 263 264 265 266 268 267
213 208 209 215 220 225 225 220 218 225 230 232 235 240 243 245 251 256 256 254 255 258 260 262 263 262 256 253 255 257 255 251 253 258 259 259 259 260 264 268 271 271
217 212 210 212 215 223 229 227 225 228 233 237 239 244 249 251 255 258 260 260 260 262 264 266 267 265 260 257 258 260 258 254 252 253 255 257 258 261 264 268 270 272
211 211 213 212 211 218 227 232 234 237 241 245 246 248 249 252 255 257 259 261 262 263 265 266 267 267 264 261 259 259 261 260 259 258 256 256 256 257 259 262 265 269
208 210 214 214 215 218 225 232 239 244 249 252 252 252 251 252 254 257 260 262 263 264 264 264 265 265 265 264 261 260 261 262 261 260 257 256 254 253 255 258 261 263
215 220 222 221 220 222 228 236 242 247 251 255 257 258 256 255 255 257 260 262 263 264 264 263 263 262 263 264 264 262 261 260 259 257 255 255 254 252 250 250 250 252
232 233 228 225 226 230 237 244 248 250 253 256 257 257 256 254 254 256 258 261 262 263 264 263 261 261 261 261 262 262 260 258 256 254 252 252 251 249 246 244 244 246
236 233 230 232 237 243 248 251 252 253 254 254 255 255 253 253 254 256 258 259 260 261 261 260 259 258 257 257 258 259 258 257 254 251 250 249 248 246 247 249 251 250
228 230 233 239 243 248 253 254 253 252 252 254 255 255 254 254 256 257 258 258 259 259 259 259 258 257 256 254 253 254 253 252 252 250 248 248 247 246 248 252 255 253
220 225 230 235 238 242 246 249 249 248 249 251 253 256 257 257 258 259 261 261 261 260 260 259 258 257 254 250 249 249 248 247 247 247 246 246 246 246 248 251 253 253
221 225 230 234 237 240 243 244 245 248 249 251 255 258 259 260 261 262 261 259 257 256 255 255 255 254 253 252 252 252 249 244 242 242 243 242 242 244 246 248 251 252
Height
3201 3202 3204 3205 3206 3207 3208 3209 3210 3210 3211 3212 3213 3214 3214 3215 3216 3216 3217 3217 3218 3218 3219 3219 3220 3220 3220 3220 3220 3221 3220 3220 3220 3221 3221 3221 3221 3221 3221 3221 3221 3221
3201 3202 3203 3204 3205 3206 3207 3208 3209 3210 3210 3211 3212 3213 3214 3215 3215 3216 3216 3217 3217 3217 3218 3218 3219 3219 3220 3220 3220 3220 3220 3220 3220 3220 3220 3220 3220 3220 3220 3220 3220 3220
3200 3201 3203 3204 3205 3206 3207 3207 3208 3209 3210 3210 3211 3212 3213 3214 3214 3215 3216 3216 3216 3217 3217 3218 3218 3218 3219 3219 3219 3220 3220 3220 3220 3220 3220 3220 3220 3220 3220 3219 3219 3219
3199 3200 3202 3203 3204 3205 3206 3206 3207 3208 3209 3210 3210 3211 3212 3213 3213 3214 3215 3215 3216 3216 3217 3217 3217 3217 3218 3218 3219 3219 3219 3219 3219 3219 3219 3219 3219 3219 3219 3219 3218 3219
3198 3199 3201 3202 3203 3204 3204 3205 3206 3207 3208 3209 3209 3210 3211 3212 3213 3213 3214 3215 3215 3216 3216 3216 3217 3217 3217 3218 3218 3218 3218 3219 3219 3219 3219 3219 3218 3218 3218 3218 3218 3218
3197 3198 3199 3200 3201 3202 3203 3204 3205 3206 3207 3208 3209 3210 3210 3211 3212 3212 3213 3214 3215 3215 3216 3216 3216 3216 3217 3217 3217 3218 3218 3218 3218 3218 3218 3218 3218 3217 3217 3217 3216 3216
3197 3197 3198 3199 3200 3201 3202 3203 3204 3205 3206 3207 3208 3208 3209 3210 3211 3212 3212 3213 3213 3214 3215 3215 3215 3216 3216 3217 3217 3217 3217 3217 3217 3217 3217 3217 3217 3216 3216 3216 3215 3215
3196 3197 3197 3198 3199 3200 3201 3202 3203 3204 3205 3206 3206 3207 3208 3209 3210 3210 3211 3211 3212 3213 3213 3214 3214 3215 3215 3215 3216 3216 3216 3216 3216 3216 3216 3216 3216 3216 3215 3215 3214 3214
3195 3195 3196 3197 3198 3199 3200 3201 3202 3203 3204 3204 3205 3206 3206 3207 3208 3209 3209 3210 3211 3211 3211 3211 3212 3213 3213 3214 3215 3215 3215 3215 3215 3216 3215 3215 3214 3214 3214 3214 3213 3213
3193 3194 3195 3196 3197 3198 3199 3200 3201 3202 3203 3203 3204 3204 3205 3206 3206 3207 3207 3209 3210 3210 3210 3210 3211 3211 3212 3213 3213 3214 3214 3215 3215 3216 3216 3215 3214 3213 3212 3212 3212 3212
3192 3193 3194 3195 3196 3197 3198 3199 3200 3201 3201 3202 3202 3203 3203 3204 3205 3205 3206 3207 3208 3209 3209 3209 3210 3210 3211 3211 3211 3211 3212 3212 3213 3213 3213 3213 3213 3212 3211 3211 3211 3211
3189 3190 3192 3193 3194 3195 3196 3197 3198 3199 3199 3200 3201 3201 3202 3202 3203 3203 3203 3204 3206 3207 3207 3207 3208 3208 3208 3208 3208 3208 3209 3210 3210 3210 3210 3211 3210 3211 3211 3210 3210 3211
3187 3189 3190 3191 3193 3193 3194 3194 3195 3195 3196 3197 3198 3199 3199 3199 3200 3200 3201 3202 3204 3204 3205 3205 3205 3205 3206 3206 3205 3206 3206 3207 3207 3207 3208 3208 3207 3208 3209 3209 3209 3209
3184 3188 3189 3190 3191 3191 3192 3192 3193 3194 3194 3195 3196 3196 3197 3197 3198 3199 3200 3201 3202 3202 3202 3203 3203 3203 3203 3203 3204 3204 3204 3204 3204 3204 3205 3205 3203 3205 3207 3207 3207 3207
3182 3184 3187 3188 3189 3189 3190 3191 3193 3193 3194 3194 3194 3194 3195 3196 3196 3197 3198 3199 3200 3200 3200 3201 3201 3201 3201 3201 3202 3202 3202 3202 3202 3202 3203 3202 3201 3202 3204 3204 3204 3204
3178 3181 3184 3186 3187 3187 3188 3190 3191 3191 3192 3192 3192 3193 3193 3194 3194 3195 3197 3197 3197 3198 3198 3199 3199 3199 3199 3199 3200 3200 3200 3200 3199 3200 3200 3200 3200 3201 3202 3202 3201 3201
3175 3179 3182 3183 3184 3184 3186 3188 3189 3189 3189 3189 3190 3190 3191 3191 3192 3192 3194 3195 3195 3196 3196 3196 3197 3197 3197 3198 3198 3198 3198 3198 3198 3198 3199 3198 3198 3199 3199 3199 3199 3199
3173 3177 3179 3180 3181 3182 3182 3183 3185 3186 3186 3187 3187 3187 3187 3188 3188 3189 3190 3192 3192 3193 3193 3193 3194 3195 3195 3196 3196 3196 3196 3196 3196 3196 3196 3196 3196 3196 3196 3196 3196 3196
3172 3174 3176 3177 3178 3179 3178 3179 3181 3182 3183 3184 3185 3185 3185 3185 3185 3186 3187 3188 3189 3189 3190 3191 3192 3192 3193 3193 3194 3194 3194 3194 3194 3194 3194 3194 3194 3194 3194 3194 3194 3194
3170 3172 3173 3175 3176 3176 3177 3178 3179 3180 3181 3181 3182 3182 3183 3183 3183 3183 3184 3185 3186 3186 3187 3188 3188 3189 3189 3190 3190 3191 3191 3191 3192 3192 3192 3192 3192 3192 3191 3191 3191 3191
3167 3169 3171 3172 3173 3174 3175 3176 3177 3178 3178 3179 3179 3180 3180 3180 3180 3181 3181 3181 3182 3182 3184 3184 3185 3185 3186 3187 3187 3187 3187 3188 3188 3189 3189 3189 3189 3189 3189 3188 3187 3187
3164 3166 3167 3168 3170 3171 3172 3173 3174 3175 3175 3175 3176 3176 3177 3177 3177 3177 3177 3177 3178 3179 3180 3180 3181 3182 3182 3183 3183 3183 3184 3184 3184 3185 3185 3186 3186 3186 3184 3183 3183 3183
3161 3163 3164 3165 3166 3167 3168 3169 3170 3171 3171 3172 3172 3172 3173 3174 3173 3173 3173 3173 3173 3174 3175 3175 3176 3177 3178 3178 3179 3179 3180 3180 3180 3181 3181 3182 3182 3182 3181 3180 3180 3180
3160 3161 3162 3163 3164 3164 3165 3166 3166 3167 3167 3167 3168 3168 3168 3169 3169 3168 3169 3169 3169 3170 3170 3170 3171 3172 3173 3174 3174 3174 3175 3175 3176 3177 3177 3178 3178 3179 3178 3178 3178 3178
3158 3159 3160 3161 3161 3161 3162 3162 3162 3163 3163 3163 3163 3163 3164 3164 3164 3165 3166 3165 3164 3165 3165 3166 3166 3167 3167 3168 3169 3170 3170 3171 3171 3172 3173 3174 3175 3175 3176 3176 3175 3176
3156 3156 3157 3158 3158 3159 3159 3159 3159 3159 3159 3159 3159 3159 3159 3160 3160 3161 3162 3160 3160 3160 3160 3160 3161 3162 3162 3163 3165 3166 3166 3166 3167 3167 3168 3170 3171 3171 3172 3173 3173 3173